Terminal Aerodrome Forecast
Issued by NWS

Home | Current Version | Previous Version | Text Only | Print | Product List | Glossary On
Versions: 1 2 3 4 5 6 7 8 9 10 11 12 13 14 15 16 17 18 19 20 21 22 23 24 25 26 27 28 29 30 31 32 33 34 35 36 37 38 39 40 41 42 43 44 45 46 47 48 49 50
445
FTUS43 KDTX 281121
TAFYIP
TAF
KYIP 281121Z 2812/2912 02010KT 6SM BR OVC008
     FM281500 01011KT P6SM OVC016
     FM282000 36008KT P6SM OVC022
     FM290200 01006KT P6SM SKC=

USA.gov is the U.S. government's official web portal to all federal, state and local government web resources and services.